SWA3994 KRDU-KMCO

Flight info

Callsign SWA3994
Flight time 1h 13m
Altitude 34000
Route ROZBO5 ROZBO SLITT SMPRR Q85 LPERD GTOUT1
Aircraft B738/M-SADE2E3GIJ4RWZ/LB1D1

Departure

Time 2026-04-24 11:18
Airport Raleigh-Durham International Airport (KRDU)

Arrival

Time 2026-04-24 12:32
Airport Orlando International Airport (KMCO)
Time Latitude Longitude Altitude Speed Heading
2026-04-24 10:53 35.87422 -78.78910 435 ft 0 kts 343°
2026-04-24 11:11 35.87420 -78.78909 435 ft 3 kts 343°
2026-04-24 11:11 35.87395 -78.78898 423 ft 4 kts 335°
2026-04-24 11:12 35.87371 -78.78883 428 ft 4 kts 328°
2026-04-24 11:12 35.87348 -78.78865 423 ft 4 kts 336°
2026-04-24 11:12 35.87328 -78.78860 425 ft 3 kts 40°
2026-04-24 11:12 35.87326 -78.78861 426 ft 1 kts 45°
2026-04-24 11:14 35.87327 -78.78861 426 ft 1 kts 45°
2026-04-24 11:15 35.87339 -78.78846 427 ft 5 kts 45°
2026-04-24 11:15 35.87372 -78.78803 435 ft 9 kts 46°
2026-04-24 11:15 35.87428 -78.78735 427 ft 13 kts 44°
2026-04-24 11:15 35.87476 -78.78676 435 ft 16 kts 44°
2026-04-24 11:16 35.87561 -78.78572 430 ft 18 kts 45°
2026-04-24 11:16 35.87653 -78.78460 421 ft 19 kts 44°
2026-04-24 11:16 35.87747 -78.78343 425 ft 19 kts 46°
2026-04-24 11:16 35.87838 -78.78230 421 ft 18 kts 45°
2026-04-24 11:17 35.87925 -78.78121 420 ft 18 kts 46°
2026-04-24 11:17 35.87968 -78.78065 424 ft 7 kts 56°
2026-04-24 11:17 35.87955 -78.77996 426 ft 11 kts 134°
2026-04-24 11:17 35.87875 -78.77993 427 ft 14 kts 219°
2026-04-24 11:18 35.87656 -78.78266 432 ft 85 kts 226°
2026-04-24 11:18 35.87061 -78.79001 431 ft 154 kts 225°
2026-04-24 11:18 35.86187 -78.80085 740 ft 193 kts 225°
2026-04-24 11:18 35.85185 -78.81294 1351 ft 211 kts 226°
2026-04-24 11:19 35.83946 -78.82168 2363 ft 209 kts 201°
2026-04-24 11:19 35.82412 -78.82328 2837 ft 238 kts 176°
2026-04-24 11:19 35.80701 -78.81744 3100 ft 272 kts 165°
2026-04-24 11:19 35.78861 -78.80996 3881 ft 280 kts 164°
2026-04-24 11:20 35.77000 -78.80240 4886 ft 283 kts 164°
2026-04-24 11:20 35.75150 -78.79496 5894 ft 283 kts 164°
2026-04-24 11:20 35.73283 -78.78750 6920 ft 282 kts 164°
2026-04-24 11:20 35.71397 -78.78016 7808 ft 287 kts 165°
2026-04-24 11:21 35.69478 -78.77297 8740 ft 289 kts 165°
2026-04-24 11:21 35.67553 -78.76584 9751 ft 289 kts 165°
2026-04-24 11:21 35.65615 -78.75869 10518 ft 297 kts 165°
2026-04-24 11:21 35.63547 -78.75109 10759 ft 324 kts 165°
2026-04-24 11:22 35.61295 -78.74281 10979 ft 349 kts 165°
2026-04-24 11:22 35.58926 -78.73407 11515 ft 361 kts 165°
2026-04-24 11:22 35.56505 -78.72513 12265 ft 366 kts 165°
2026-04-24 11:22 35.54055 -78.71611 13086 ft 369 kts 166°
2026-04-24 11:23 35.51577 -78.70706 13861 ft 374 kts 167°
2026-04-24 11:23 35.49022 -78.70068 14536 ft 376 kts 174°
2026-04-24 11:23 35.46408 -78.69686 15229 ft 380 kts 176°
2026-04-24 11:23 35.43761 -78.69375 15917 ft 385 kts 177°
2026-04-24 11:24 35.41077 -78.69062 16589 ft 389 kts 176°
2026-04-24 11:24 35.38361 -78.68728 17216 ft 395 kts 176°
2026-04-24 11:24 35.35616 -78.68367 17900 ft 399 kts 175°
2026-04-24 11:24 35.32845 -78.67988 18527 ft 403 kts 175°
2026-04-24 11:25 35.30083 -78.67599 19108 ft 405 kts 175°
2026-04-24 11:25 35.27269 -78.67198 19715 ft 408 kts 175°
2026-04-24 11:25 35.24436 -78.66793 20297 ft 411 kts 175°
2026-04-24 11:25 35.21579 -78.66384 20860 ft 414 kts 175°
2026-04-24 11:26 35.18703 -78.65973 21426 ft 417 kts 175°
2026-04-24 11:26 35.15803 -78.65559 21958 ft 420 kts 175°
2026-04-24 11:26 35.12886 -78.65144 22480 ft 424 kts 175°
2026-04-24 11:26 35.09941 -78.64724 22994 ft 427 kts 175°
2026-04-24 11:27 35.06977 -78.64303 23503 ft 431 kts 175°
2026-04-24 11:27 35.03992 -78.63878 23930 ft 434 kts 175°
2026-04-24 11:27 35.00981 -78.63450 24335 ft 437 kts 175°
2026-04-24 11:27 34.97992 -78.63026 24737 ft 440 kts 175°
2026-04-24 11:28 34.94899 -78.62643 25123 ft 442 kts 179°
2026-04-24 11:28 34.91863 -78.62698 25497 ft 443 kts 185°
2026-04-24 11:28 34.88782 -78.63000 25894 ft 446 kts 187°
2026-04-24 11:28 34.85681 -78.63349 26278 ft 448 kts 187°
2026-04-24 11:29 34.82558 -78.63666 26651 ft 452 kts 186°
2026-04-24 11:29 34.79412 -78.63933 27016 ft 454 kts 185°
2026-04-24 11:29 34.76240 -78.64171 27380 ft 457 kts 185°
2026-04-24 11:29 34.73052 -78.64423 27731 ft 459 kts 187°
2026-04-24 11:30 34.69911 -78.65136 28053 ft 459 kts 198°
2026-04-24 11:30 34.66909 -78.66468 28433 ft 459 kts 206°
2026-04-24 11:30 34.64149 -78.68316 28761 ft 459 kts 214°
2026-04-24 11:30 34.61474 -78.70461 29065 ft 462 kts 215°
2026-04-24 11:31 34.58795 -78.72631 29429 ft 463 kts 215°
2026-04-24 11:31 34.56105 -78.74790 29924 ft 462 kts 215°
2026-04-24 11:31 34.53423 -78.76914 30386 ft 460 kts 214°
2026-04-24 11:31 34.50741 -78.79016 30804 ft 458 kts 214°
2026-04-24 11:32 34.48062 -78.81108 31178 ft 458 kts 214°
2026-04-24 11:32 34.45378 -78.83202 31547 ft 458 kts 214°
2026-04-24 11:32 34.42710 -78.85303 31951 ft 456 kts 216°
2026-04-24 11:32 34.40099 -78.87483 32343 ft 455 kts 217°
2026-04-24 11:33 34.37521 -78.89698 32717 ft 454 kts 217°
2026-04-24 11:33 34.34947 -78.91915 33084 ft 454 kts 217°
2026-04-24 11:33 34.32372 -78.94117 33472 ft 453 kts 217°
2026-04-24 11:33 34.29825 -78.96275 33847 ft 452 kts 217°
2026-04-24 11:34 34.27246 -78.98451 34027 ft 455 kts 217°
2026-04-24 11:34 34.24630 -79.00653 34027 ft 460 kts 217°
2026-04-24 11:34 34.19309 -79.05114 34041 ft 468 kts 217°
2026-04-24 11:35 34.13955 -79.09594 34037 ft 468 kts 217°
2026-04-24 11:35 34.08602 -79.14070 34038 ft 468 kts 217°
2026-04-24 11:36 34.03244 -79.18544 34039 ft 468 kts 217°
2026-04-24 11:36 33.97898 -79.23007 34033 ft 467 kts 217°
2026-04-24 11:37 33.92560 -79.27461 34044 ft 467 kts 217°
2026-04-24 11:37 33.87246 -79.31889 34041 ft 466 kts 216°
2026-04-24 11:38 33.81909 -79.36330 34041 ft 466 kts 216°
2026-04-24 11:38 33.76577 -79.40760 34040 ft 466 kts 216°
2026-04-24 11:39 33.71276 -79.45157 34033 ft 466 kts 216°
2026-04-24 11:39 33.65935 -79.49581 34039 ft 466 kts 216°
2026-04-24 11:40 33.60590 -79.54001 34039 ft 466 kts 216°
2026-04-24 11:40 33.55247 -79.58413 34043 ft 466 kts 216°
2026-04-24 11:41 33.49901 -79.62820 34032 ft 466 kts 216°
2026-04-24 11:41 33.44549 -79.67227 34047 ft 467 kts 216°
2026-04-24 11:42 33.39191 -79.71632 34042 ft 467 kts 216°
2026-04-24 11:42 33.33818 -79.76041 34046 ft 468 kts 216°
2026-04-24 11:43 33.28480 -79.80410 34043 ft 468 kts 216°
2026-04-24 11:43 33.23100 -79.84808 34048 ft 469 kts 216°
2026-04-24 11:44 33.17712 -79.89208 34056 ft 469 kts 216°
2026-04-24 11:44 33.12320 -79.93605 34054 ft 469 kts 216°
2026-04-24 11:45 33.06925 -79.97998 34054 ft 469 kts 216°
2026-04-24 11:45 33.01525 -80.02388 34055 ft 470 kts 216°
2026-04-24 11:46 32.96118 -80.06777 34055 ft 469 kts 216°
2026-04-24 11:46 32.90750 -80.11128 34055 ft 469 kts 216°
2026-04-24 11:47 32.85346 -80.15501 34055 ft 469 kts 216°
2026-04-24 11:47 32.79949 -80.19864 34054 ft 469 kts 216°
2026-04-24 11:48 32.74547 -80.24223 34048 ft 469 kts 216°
2026-04-24 11:48 32.69147 -80.28575 34054 ft 469 kts 216°
2026-04-24 11:49 32.63740 -80.32926 34050 ft 469 kts 215°
2026-04-24 11:49 32.58329 -80.37273 34046 ft 470 kts 215°
2026-04-24 11:50 32.52758 -80.41255 34058 ft 471 kts 211°
2026-04-24 11:50 32.47042 -80.45041 34059 ft 471 kts 210°
2026-04-24 11:51 32.41318 -80.48838 34051 ft 471 kts 211°
2026-04-24 11:51 32.35605 -80.52667 34055 ft 472 kts 211°
2026-04-24 11:52 32.29893 -80.56510 34046 ft 471 kts 211°
2026-04-24 11:52 32.24234 -80.60313 34041 ft 471 kts 211°
2026-04-24 11:53 32.18527 -80.64141 34062 ft 471 kts 211°
2026-04-24 11:53 32.12816 -80.67966 34060 ft 472 kts 211°
2026-04-24 11:54 32.07101 -80.71787 34063 ft 472 kts 211°
2026-04-24 11:54 32.01387 -80.75602 34060 ft 472 kts 211°
2026-04-24 11:55 31.95698 -80.79395 34044 ft 472 kts 210°
2026-04-24 11:55 31.89973 -80.83207 34030 ft 473 kts 210°
2026-04-24 11:56 31.84226 -80.87027 34038 ft 473 kts 210°
2026-04-24 11:56 31.78490 -80.90833 34039 ft 474 kts 210°
2026-04-24 11:57 31.72749 -80.94639 34038 ft 473 kts 210°
2026-04-24 11:57 31.67013 -80.98437 34040 ft 473 kts 210°
2026-04-24 11:58 31.61270 -81.02235 34044 ft 473 kts 210°
2026-04-24 11:58 31.55545 -81.05950 34053 ft 473 kts 209°
2026-04-24 11:59 31.49685 -81.09502 34060 ft 473 kts 208°
2026-04-24 11:59 31.43829 -81.13052 34051 ft 474 kts 208°
2026-04-24 12:00 31.37990 -81.16625 34062 ft 474 kts 208°
2026-04-24 12:00 31.32101 -81.20139 34061 ft 474 kts 208°
2026-04-24 12:01 31.26243 -81.23594 34057 ft 474 kts 208°
2026-04-24 12:01 31.20283 -81.26929 34045 ft 476 kts 200°
2026-04-24 12:02 31.13796 -81.28425 34043 ft 477 kts 182°
2026-04-24 12:02 31.07152 -81.28371 34055 ft 477 kts 180°
2026-04-24 12:03 31.01635 -81.28273 34058 ft 477 kts 180°
2026-04-24 12:03 30.93884 -81.28267 34076 ft 480 kts 180°
2026-04-24 12:04 30.88253 -81.28259 34066 ft 486 kts 180°
2026-04-24 12:04 30.81538 -81.28174 34072 ft 484 kts 179°
2026-04-24 12:05 30.74827 -81.28104 34063 ft 481 kts 180°
2026-04-24 12:05 30.68147 -81.28113 34065 ft 479 kts 180°
2026-04-24 12:06 30.61476 -81.28101 34063 ft 478 kts 180°
2026-04-24 12:06 30.54840 -81.27827 34069 ft 475 kts 176°
2026-04-24 12:07 30.51556 -81.27556 33737 ft 472 kts 176°
2026-04-24 12:07 30.48290 -81.27267 33153 ft 468 kts 176°
2026-04-24 12:07 30.45078 -81.26988 32532 ft 467 kts 176°
2026-04-24 12:07 30.41881 -81.26723 31901 ft 466 kts 176°
2026-04-24 12:08 30.38664 -81.26469 31455 ft 461 kts 176°
2026-04-24 12:08 30.35480 -81.26226 30982 ft 456 kts 176°
2026-04-24 12:08 30.32329 -81.25990 30525 ft 452 kts 176°
2026-04-24 12:08 30.29207 -81.25758 30053 ft 448 kts 176°
2026-04-24 12:09 30.26106 -81.25529 29518 ft 444 kts 176°
2026-04-24 12:09 30.23042 -81.25302 29029 ft 439 kts 176°
2026-04-24 12:09 30.20010 -81.25076 28559 ft 434 kts 176°
2026-04-24 12:09 30.17007 -81.24853 28078 ft 430 kts 176°
2026-04-24 12:10 30.14034 -81.24632 27624 ft 426 kts 177°
2026-04-24 12:10 30.11089 -81.24413 27160 ft 422 kts 177°
2026-04-24 12:10 30.08169 -81.24195 26706 ft 419 kts 177°
2026-04-24 12:11 30.02398 -81.23766 25809 ft 413 kts 177°
2026-04-24 12:11 29.99538 -81.23554 25364 ft 410 kts 177°
2026-04-24 12:11 29.96693 -81.23343 24921 ft 408 kts 178°
2026-04-24 12:11 29.93860 -81.23133 24457 ft 407 kts 178°
2026-04-24 12:12 29.91037 -81.22924 24012 ft 405 kts 178°
2026-04-24 12:12 29.87308 -81.22647 23358 ft 404 kts 178°
2026-04-24 12:12 29.85456 -81.22510 23036 ft 402 kts 178°
2026-04-24 12:12 29.82674 -81.22304 22572 ft 399 kts 178°
2026-04-24 12:13 29.79910 -81.22099 22121 ft 395 kts 178°
2026-04-24 12:13 29.77176 -81.21897 21683 ft 392 kts 178°
2026-04-24 12:13 29.74464 -81.21696 21250 ft 389 kts 178°
2026-04-24 12:13 29.71774 -81.21498 20824 ft 385 kts 178°
2026-04-24 12:14 29.69111 -81.21293 20437 ft 382 kts 178°
2026-04-24 12:14 29.66472 -81.21070 20029 ft 379 kts 178°
2026-04-24 12:14 29.63856 -81.20842 19617 ft 376 kts 178°
2026-04-24 12:14 29.61289 -81.20617 19200 ft 374 kts 178°
2026-04-24 12:15 29.58706 -81.20392 18794 ft 371 kts 178°
2026-04-24 12:15 29.56132 -81.20169 18366 ft 370 kts 178°
2026-04-24 12:15 29.53571 -81.19949 17886 ft 367 kts 178°
2026-04-24 12:15 29.51029 -81.19731 17453 ft 364 kts 178°
2026-04-24 12:16 29.48513 -81.19515 17030 ft 361 kts 178°
2026-04-24 12:16 29.46015 -81.19301 16619 ft 358 kts 178°
2026-04-24 12:16 29.43541 -81.19090 16216 ft 355 kts 178°
2026-04-24 12:16 29.41085 -81.18880 15811 ft 353 kts 178°
2026-04-24 12:17 29.38642 -81.18672 15413 ft 350 kts 178°
2026-04-24 12:17 29.36221 -81.18466 15018 ft 348 kts 178°
2026-04-24 12:17 29.33814 -81.18260 14622 ft 346 kts 178°
2026-04-24 12:17 29.31420 -81.18056 14227 ft 344 kts 178°
2026-04-24 12:18 29.29038 -81.17853 13834 ft 342 kts 178°
2026-04-24 12:18 29.26670 -81.17645 13393 ft 341 kts 178°
2026-04-24 12:18 29.24314 -81.17436 12975 ft 338 kts 178°
2026-04-24 12:18 29.21973 -81.17229 12576 ft 336 kts 178°
2026-04-24 12:19 29.19654 -81.17023 12180 ft 333 kts 177°
2026-04-24 12:19 29.17390 -81.16499 11886 ft 333 kts 162°
2026-04-24 12:19 29.15232 -81.15549 11651 ft 331 kts 160°
2026-04-24 12:19 29.13085 -81.14571 11400 ft 333 kts 160°
2026-04-24 12:20 29.10949 -81.13619 11146 ft 334 kts 161°
2026-04-24 12:20 29.08799 -81.12685 10880 ft 328 kts 161°
2026-04-24 12:20 29.06681 -81.11778 10631 ft 322 kts 161°
2026-04-24 12:20 29.04602 -81.10892 10387 ft 316 kts 161°
2026-04-24 12:21 29.02545 -81.10080 10150 ft 310 kts 163°
2026-04-24 12:21 29.00516 -81.09320 10041 ft 301 kts 163°
2026-04-24 12:21 28.98571 -81.08592 9997 ft 286 kts 163°
2026-04-24 12:21 28.96650 -81.07978 9476 ft 283 kts 173°
2026-04-24 12:22 28.94725 -81.07735 9162 ft 276 kts 177°
2026-04-24 12:22 28.92813 -81.07556 8956 ft 275 kts 176°
2026-04-24 12:22 28.90898 -81.07360 8733 ft 277 kts 176°
2026-04-24 12:22 28.88974 -81.07209 8509 ft 277 kts 185°
2026-04-24 12:23 28.87160 -81.07857 8298 ft 272 kts 211°
2026-04-24 12:23 28.85596 -81.09051 8090 ft 270 kts 216°
2026-04-24 12:23 28.84090 -81.10280 7892 ft 269 kts 216°
2026-04-24 12:23 28.82575 -81.11510 7686 ft 265 kts 216°
2026-04-24 12:24 28.81073 -81.12716 7527 ft 260 kts 216°
2026-04-24 12:24 28.79587 -81.13900 7235 ft 261 kts 215°
2026-04-24 12:24 28.78112 -81.15071 7069 ft 256 kts 215°
2026-04-24 12:24 28.76703 -81.16279 6911 ft 251 kts 227°
2026-04-24 12:25 28.75926 -81.17985 6756 ft 242 kts 258°
2026-04-24 12:25 28.75720 -81.19857 6620 ft 236 kts 261°
2026-04-24 12:25 28.75034 -81.21544 6216 ft 242 kts 227°
2026-04-24 12:25 28.73885 -81.22950 5904 ft 244 kts 230°
2026-04-24 12:26 28.72811 -81.24440 5645 ft 243 kts 232°
2026-04-24 12:26 28.71763 -81.25959 5396 ft 243 kts 233°
2026-04-24 12:26 28.70735 -81.27435 5167 ft 242 kts 226°
2026-04-24 12:26 28.69319 -81.28420 4925 ft 241 kts 194°
2026-04-24 12:27 28.67639 -81.28542 4574 ft 243 kts 177°
2026-04-24 12:27 28.65930 -81.28500 4232 ft 247 kts 178°
2026-04-24 12:27 28.64197 -81.28471 3896 ft 250 kts 179°
2026-04-24 12:27 28.62448 -81.28447 3560 ft 253 kts 179°
2026-04-24 12:28 28.60683 -81.28427 3236 ft 255 kts 179°
2026-04-24 12:28 28.58906 -81.28408 2930 ft 254 kts 179°
2026-04-24 12:28 28.57158 -81.28391 2611 ft 247 kts 179°
2026-04-24 12:28 28.55487 -81.28373 2295 ft 234 kts 179°
2026-04-24 12:29 28.53926 -81.28356 1984 ft 218 kts 179°
2026-04-24 12:29 28.52470 -81.28341 1706 ft 196 kts 179°
2026-04-24 12:29 28.51176 -81.28328 1454 ft 177 kts 179°
2026-04-24 12:29 28.50047 -81.28315 1243 ft 155 kts 179°
2026-04-24 12:30 28.49016 -81.28303 1089 ft 146 kts 178°
2026-04-24 12:30 28.47986 -81.28292 861 ft 147 kts 179°
2026-04-24 12:30 28.46974 -81.28281 681 ft 147 kts 179°
2026-04-24 12:30 28.45955 -81.28264 472 ft 146 kts 179°
2026-04-24 12:31 28.44945 -81.28248 257 ft 144 kts 179°
2026-04-24 12:31 28.43973 -81.28254 112 ft 131 kts 180°
2026-04-24 12:31 28.43179 -81.28253 100 ft 94 kts 179°
2026-04-24 12:31 28.42620 -81.28243 105 ft 72 kts 180°
2026-04-24 12:32 28.42336 -81.28243 106 ft 0 kts 190°
2026-04-24 12:32 28.42293 -81.28286 106 ft 11 kts 251°
2026-04-24 12:32 28.42325 -81.28354 107 ft 11 kts 341°
2026-04-24 12:32 28.42401 -81.28363 106 ft 11 kts
2026-04-24 12:33 28.42477 -81.28369 106 ft 12 kts 334°
2026-04-24 12:33 28.42487 -81.28471 104 ft 17 kts 250°
2026-04-24 12:33 28.42440 -81.28620 104 ft 23 kts 251°
2026-04-24 12:33 28.42382 -81.28809 106 ft 27 kts 250°
2026-04-24 12:34 28.42314 -81.29025 105 ft 31 kts 251°
2026-04-24 12:34 28.42286 -81.29268 104 ft 32 kts 269°
2026-04-24 12:34 28.42282 -81.29519 98 ft 32 kts 269°
2026-04-24 12:34 28.42281 -81.29712 99 ft 17 kts 271°
2026-04-24 12:35 28.42352 -81.29793 101 ft 16 kts 356°
2026-04-24 12:35 28.42474 -81.29794 102 ft 20 kts 360°
2026-04-24 12:35 28.42627 -81.29797 102 ft 25 kts 359°
2026-04-24 12:35 28.42815 -81.29799 102 ft 29 kts
2026-04-24 12:36 28.43024 -81.29800 102 ft 31 kts 359°
2026-04-24 12:36 28.43226 -81.29802 102 ft 33 kts 359°
2026-04-24 12:36 28.43457 -81.29805 103 ft 34 kts 359°
2026-04-24 12:36 28.43667 -81.29807 103 ft 16 kts 360°
2026-04-24 12:37 28.43776 -81.29833 101 ft 16 kts 335°
2026-04-24 12:37 28.43850 -81.29912 102 ft 8 kts 287°
2026-04-24 12:37 28.43831 -81.29971 101 ft 9 kts 234°
2026-04-24 12:37 28.43826 -81.30050 101 ft 12 kts 275°
2026-04-24 12:38 28.43795 -81.30156 100 ft 17 kts 233°
2026-04-24 12:38 28.43747 -81.30206 100 ft 9 kts 201°
2026-04-24 12:38 28.43696 -81.30223 100 ft 7 kts 180°
2026-04-24 12:39 28.43627 -81.30195 100 ft 0 kts 159°